TimeCST,TemperatureF,Dew PointF,Humidity,Sea Level PressureIn,VisibilityMPH,Wind Direction,Wind SpeedMPH,Gust SpeedMPH,PrecipitationIn,Events,Conditions,WindDirDegrees,DateUTC
12:53 AM,14.0,10.0,84,30.27,10.0,South,5.8,-,N/A,,Clear,190,2011-12-07 06:53:00
1:53 AM,17.6,10.4,73,30.20,10.0,SSW,5.8,-,N/A,,Clear,200,2011-12-07 07:53:00
2:53 AM,17.6,12.2,79,30.18,10.0,South,8.1,-,N/A,,Clear,190,2011-12-07 08:53:00
3:53 AM,18.0,14.0,84,30.21,10.0,SSW,9.2,-,N/A,,Clear,200,2011-12-07 09:53:00
4:53 AM,17.1,12.9,84,30.20,10.0,South,4.6,-,N/A,,Clear,190,2011-12-07 10:53:00
5:53 AM,17.6,12.2,79,30.14,10.0,SW,3.5,-,N/A,,Clear,220,2011-12-07 11:53:00
6:53 AM,19.0,14.0,81,30.18,10.0,SW,5.8,-,N/A,,Clear,220,2011-12-07 12:53:00
7:53 AM,19.0,14.0,81,30.18,10.0,SW,9.2,-,N/A,,Clear,220,2011-12-07 13:53:00
8:53 AM,21.9,14.0,72,30.19,10.0,WSW,10.4,-,N/A,,Clear,240,2011-12-07 14:53:00
9:53 AM,26.1,16.0,66,30.22,10.0,West,10.4,-,N/A,,Clear,270,2011-12-07 15:53:00
10:53 AM,30.9,17.1,57,30.22,10.0,West,8.1,-,N/A,,Clear,280,2011-12-07 16:53:00
11:53 AM,37.0,19.9,50,30.19,10.0,SW,4.6,-,N/A,,Clear,230,2011-12-07 17:53:00
12:53 PM,39.9,21.0,47,30.18,10.0,NW,9.2,-,N/A,,Clear,310,2011-12-07 18:53:00
1:53 PM,42.1,21.0,43,30.16,10.0,WNW,6.9,-,N/A,,Clear,290,2011-12-07 19:53:00
2:53 PM,44.1,21.9,42,30.16,10.0,WNW,6.9,-,N/A,,Clear,290,2011-12-07 20:53:00
3:53 PM,43.0,23.0,45,30.17,10.0,WNW,6.9,-,N/A,,Clear,300,2011-12-07 21:53:00
4:53 PM,37.9,25.0,60,30.18,10.0,NW,6.9,-,N/A,,Clear,310,2011-12-07 22:53:00
5:53 PM,32.0,24.1,73,30.21,10.0,NW,5.8,-,N/A,,Clear,310,2011-12-07 23:53:00
6:53 PM,28.9,23.0,78,30.22,10.0,WNW,5.8,-,N/A,,Clear,300,2011-12-08 00:53:00
7:53 PM,28.0,21.9,78,30.23,10.0,WNW,8.1,-,N/A,,Clear,290,2011-12-08 01:53:00
8:53 PM,27.0,21.9,81,30.24,10.0,WNW,5.8,-,N/A,,Clear,290,2011-12-08 02:53:00
9:53 PM,26.1,23.0,88,30.23,10.0,NNW,5.8,-,N/A,,Clear,330,2011-12-08 03:53:00
10:53 PM,26.1,23.0,88,30.22,10.0,North,3.5,-,N/A,,Clear,360,2011-12-08 04:53:00
11:53 PM,26.1,23.0,88,30.24,10.0,SW,3.5,-,N/A,,Clear,220,2011-12-08 05:53:00